(256413) = 2005 UZ208 = 2007 BJ6

Discovered at Palomar on 2007-01-17 by NEAT.

Orbit

Orbit type: Main Belt

Note: WebGL enabled browser required.

epoch2024-03-31.0
epoch JD2460400.5
perihelion date2023-06-12.98709
perihelion JD2460108.48709
argument of perihelion (°)277.71232
ascending node (°)204.48561
inclination (°)7.15783
eccentricity0.1785506
perihelion distance (AU)2.5445492
Tisserand w.r.t. Jupiter3.2
ΔV w.r.t. Earth (km/sec)10.2
semimajor axis (AU)3.0976336
mean anomaly (°)52.79111
mean daily motion (°/day)0.18078350
aphelion distance (AU)3.651
period (years)5.45
P-vector [x]-0.52964491
P-vector [y]0.81905226
P-vector [z]0.22052135
Q-vector [x]-0.84664586
Q-vector [y]-0.49465464
Q-vector [z]-0.19623346
absolute magnitude16.12
phase slope0.15
uncertainty0
referenceMPEC 2024-C93
observations used332
oppositions15
arc length (days)8476
first opposition used2000
last opposition used2024
residual rms (arc-secs)0.84
perturbers coarse indicatorM-v
perturbers precise indicator003Ek
first observation date used2000-11-24.0
last observation date used2024-02-08.0
computer nameMPCLINUX
JD of orbit computation2456465.518252
perihelion JD uncertainty (days)1.5758E-04
argument of perihelion uncertainty (°)5.3653E-05
ascending node uncertainty (°)4.2702E-05
inclination uncertainty (°)9.2922E-06
eccentricity uncertainty 5.5168E-08
perihelion distance uncertainty (AU)1.5302E-07
Minimum Orbit Intersection Distances (in AU)
for orbit epoch: 2460400.5, reference: E2024-G51
Mercury2.22639
Venus1.83972
Earth1.57295
Mars0.95011
Jupiter1.53105
Saturn6.21331
Uranus15.6559
Neptune26.4958

Observations

338 total observations over interval: 2000 11 24.23791 – 2024 02 08.629941
These data are available for download (format description).

Date (UT) J2000 RA J2000 Dec Magn Location Ref
2000 11 24.23791 03 35 34.67 +13 22 04.6 19.4 R 699 – Lowell Observatory-LONEOS MPS 201565
2000 11 24.26131 03 35 33.58 +13 21 57.5   699 – Lowell Observatory-LONEOS MPS 201565
2000 11 24.28481 03 35 32.44 +13 21 50.0   699 – Lowell Observatory-LONEOS MPS 201565
2000 11 24.30833 03 35 31.27 +13 21 42.9   699 – Lowell Observatory-LONEOS MPS 201565
2002 04 04.24868 11 44 05.11 -02 55 14.0 19.8   644 – Palomar Mountain/NEAT MPS 201565
2002 04 04.26953 11 44 04.33 -02 55 05.3 19.7   644 – Palomar Mountain/NEAT MPS 201565
2002 04 04.29059 11 44 03.54 -02 54 56.5 20.0   644 – Palomar Mountain/NEAT MPS 201565
2005 09 27.25676 01 07 23.23 +09 28 22.0 20.9 V 691 – Steward Observatory, Kitt Peak-Spacewatch MPS 201565
2005 09 27.26416 01 07 22.93 +09 28 19.6 20.7 V 691 – Steward Observatory, Kitt Peak-Spacewatch MPS 201565
2005 09 27.27417 01 07 22.52 +09 28 15.9 20.7 V 691 – Steward Observatory, Kitt Peak-Spacewatch MPS 201565
2005 09 27.28164 01 07 22.20 +09 28 13.6 20.7 V 691 – Steward Observatory, Kitt Peak-Spacewatch MPS 201565
2005 09 27.29159 01 07 21.81 +09 28 10.0 20.8 V 691 – Steward Observatory, Kitt Peak-Spacewatch MPS 201565
2005 09 27.29905 01 07 21.47 +09 28 07.6 20.7 V 691 – Steward Observatory, Kitt Peak-Spacewatch MPS 201565
2005 10 07.22114 01 00 20.96 +08 26 29.2 20.7 V 691 – Steward Observatory, Kitt Peak-Spacewatch MPS 201565
2005 10 07.23852 01 00 20.16 +08 26 22.1 20.6 V 691 – Steward Observatory, Kitt Peak-Spacewatch MPS 201565
2005 10 07.25591 01 00 19.36 +08 26 15.4 20.6 V 691 – Steward Observatory, Kitt Peak-Spacewatch MPS 201565
2005 10 27.24145 00 46 18.15 +06 15 22.8 20.2 V G96 – Mt. Lemmon Survey MPS 149832
2005 10 27.24909 00 46 17.83 +06 15 19.7 20.4 V G96 – Mt. Lemmon Survey MPS 149832
2005 10 27.25674 00 46 17.54 +06 15 17.0 20.2 V G96 – Mt. Lemmon Survey MPS 149832
2005 10 28.15586 00 45 44.46 +06 09 44.6 20.6 V G96 – Mt. Lemmon Survey MPS 149832
2005 10 28.15850 00 45 44.35 +06 09 43.9 20.6 V G96 – Mt. Lemmon Survey MPS 149832
2005 10 28.16133 00 45 44.24 +06 09 42.8 20.5 V G96 – Mt. Lemmon Survey MPS 149832
2005 10 28.16392 00 45 44.13 +06 09 41.7 20.9 V G96 – Mt. Lemmon Survey MPS 149832
2005 11 25.21734 00 35 35.80 +04 03 41.0 21.1 V G96 – Mt. Lemmon Survey MPS 201565
2005 11 25.22316 00 35 35.73 +04 03 39.8 21.8 V G96 – Mt. Lemmon Survey MPS 201565
2005 11 25.22898 00 35 35.73 +04 03 39.0 21.8 V G96 – Mt. Lemmon Survey MPS 201565
2005 11 25.23488 00 35 35.70 +04 03 38.0 21.1 V G96 – Mt. Lemmon Survey MPS 201565
2007 01 17.34500 08 32 52.26 +07 01 29.1 19.0 R 644 – Palomar Mountain/NEAT MPS 197161
2007 01 17.36551 08 32 51.25 +07 01 31.8 18.8 R 644 – Palomar Mountain/NEAT MPS 197161
2007 01 17.38603 08 32 50.25 +07 01 34.4 18.9 R 644 – Palomar Mountain/NEAT MPS 197161
2007 01 18.46012 08 31 59.60 +07 04 05.6 18.8 R 644 – Palomar Mountain/NEAT MPS 197161
2007 01 18.48167 08 31 58.52 +07 04 08.6 18.9 R 644 – Palomar Mountain/NEAT MPS 197161
2007 01 18.50203 08 31 57.56 +07 04 11.3 19.1 R 644 – Palomar Mountain/NEAT MPS 197161
2007 02 08.17695 08 15 39.53 +08 20 36.7 19.1 R 644 – Palomar Mountain/NEAT MPS 201565
2007 02 08.17814 08 15 39.46 +08 20 37.1 19.3 R 644 – Palomar Mountain/NEAT MPS 201566
2007 02 08.19778 08 15 38.59 +08 20 42.1 19.1 R 644 – Palomar Mountain/NEAT MPS 201566
2007 02 08.19896 08 15 38.54 +08 20 42.6 19.2 R 644 – Palomar Mountain/NEAT MPS 201566
2007 02 08.22001 08 15 37.63 +08 20 48.4 19.3 R 644 – Palomar Mountain/NEAT MPS 201566
2007 02 08.22121 08 15 37.56 +08 20 48.9 19.2 R 644 – Palomar Mountain/NEAT MPS 201566
2007 02 17.23314 08 09 56.52 +09 04 02.1 20.1 V 703 – Catalina Sky Survey MPS 200442
2007 02 17.23963 08 09 56.37 +09 04 02.5 19.8 V 703 – Catalina Sky Survey MPS 200442
2007 02 17.24609 08 09 56.05 +09 04 04.7 19.3 V 703 – Catalina Sky Survey MPS 200442
2007 02 17.25256 08 09 55.87 +09 04 07.1 19.4 V 703 – Catalina Sky Survey MPS 200442
2007 02 21.23536 08 07 57.96 +09 23 37.3 19.9   704 – Lincoln Laboratory ETS, New Mexico MPS 200442
2007 02 21.24767 08 07 57.63 +09 23 40.5 19.7   704 – Lincoln Laboratory ETS, New Mexico MPS 200442
2007 02 21.26017 08 07 57.26 +09 23 44.5 19.7   704 – Lincoln Laboratory ETS, New Mexico MPS 200442
2007 02 21.27268 08 07 56.85 +09 23 48.4 19.6   704 – Lincoln Laboratory ETS, New Mexico MPS 200442
2008 06 03.24391 14 55 18.04 -11 56 43.8 20.9 V G96 – Mt. Lemmon Survey MPS 250975
2008 06 03.25058 14 55 17.83 -11 56 42.4 20.7 V G96 – Mt. Lemmon Survey MPS 250975
2008 06 03.25724 14 55 17.58 -11 56 41.1 21.1 V G96 – Mt. Lemmon Survey MPS 250975
2008 06 03.26395 14 55 17.36 -11 56 40.2 21.1 V G96 – Mt. Lemmon Survey MPS 250975
2010 09 01.35967 23 05 01.62 +01 14 46.6 21.8 R I41 – Palomar Mountain--ZTF MPS 1548579
2010 09 01.40899 23 04 59.49 +01 14 31.7 21.3 R I41 – Palomar Mountain--ZTF MPS 1548579
2010 09 04.29780 23 02 59.28 +00 59 13.7 20.4 V G96 – Mt. Lemmon Survey MPS 347148
2010 09 04.30368 23 02 58.99 +00 59 11.6 20.6 V G96 – Mt. Lemmon Survey MPS 347148
2010 09 04.30951 23 02 58.77 +00 59 09.9 20.8 V G96 – Mt. Lemmon Survey MPS 347148
2010 09 04.31532 23 02 58.45 +00 59 07.7 20.6 V G96 – Mt. Lemmon Survey MPS 347148
2010 09 07.465886 23 00 45.571 +00 41 47.31 21.02 g F51 – Pan-STARRS 1, Haleakala MPS 366883
2010 09 07.477814 23 00 45.069 +00 41 43.11 21.20 g F51 – Pan-STARRS 1, Haleakala MPS 366883
2010 10 13.22346 22 39 59.11 -02 38 09.7 20.9 V G96 – Mt. Lemmon Survey MPS 351334
2010 10 13.23039 22 39 58.96 -02 38 11.4 20.8 V G96 – Mt. Lemmon Survey MPS 351334
2010 10 13.23734 22 39 58.78 -02 38 13.7 21.5 V G96 – Mt. Lemmon Survey MPS 351334
2011 10 22.48074 04 57 59.18 +17 02 03.8 20.3 V 691 – Steward Observatory, Kitt Peak-Spacewatch MPS 398012
2011 10 22.49852 04 57 59.03 +17 01 59.5 20.2 V 691 – Steward Observatory, Kitt Peak-Spacewatch MPS 398012
2011 10 22.51628 04 57 58.84 +17 01 55.5 20.8 V 691 – Steward Observatory, Kitt Peak-Spacewatch MPS 398012
2011 10 26.42997 04 57 17.355 +16 46 30.46 20.8 w F51 – Pan-STARRS 1, Haleakala MPS 398012
2011 10 26.45907 04 57 16.920 +16 46 23.64 20.7 w F51 – Pan-STARRS 1, Haleakala MPS 398013
2011 10 26.47364 04 57 16.697 +16 46 20.12 20.7 w F51 – Pan-STARRS 1, Haleakala MPS 398013
2011 11 25.66882 04 39 56.90 +14 34 57.8 19.8 R D29 – Purple Mountain Observatory, XuYi Station MPS 403728
2011 11 25.68482 04 39 56.10 +14 34 53.3 19.9 R D29 – Purple Mountain Observatory, XuYi Station MPS 403728
2011 11 25.70083 04 39 55.28 +14 34 48.8 19.7 R D29 – Purple Mountain Observatory, XuYi Station MPS 403728
2011 12 24.14037 04 17 18.52 +13 02 29.6 19.8 V 703 – Catalina Sky Survey MPS 405826
2011 12 24.14879 04 17 18.16 +13 02 28.8 19.9 V 703 – Catalina Sky Survey MPS 405826
2011 12 24.15738 04 17 17.84 +13 02 26.4 19.5 V 703 – Catalina Sky Survey MPS 405826
2011 12 24.16590 04 17 17.44 +13 02 27.3 20.2 V 703 – Catalina Sky Survey MPS 405826
2013 03 12.25863 12 40 28.30 -08 28 12.6 20.2 V 691 – Steward Observatory, Kitt Peak-Spacewatch MPS 461522
2013 03 12.27628 12 40 27.62 -08 28 06.5 20.2 V 691 – Steward Observatory, Kitt Peak-Spacewatch MPS 461522
2013 03 12.29391 12 40 26.94 -08 28 00.2 20.3 V 691 – Steward Observatory, Kitt Peak-Spacewatch MPS 461522
2013 03 13.47040 12 39 42.405 -08 21 03.41 20.0 w F51 – Pan-STARRS 1, Haleakala MPS 460394
2013 03 13.48464 12 39 41.831 -08 20 58.18 20.0 w F51 – Pan-STARRS 1, Haleakala MPS 460394
2013 03 13.49886 12 39 41.265 -08 20 53.13 20.1 w F51 – Pan-STARRS 1, Haleakala MPS 460394
2013 03 13.51312 12 39 40.696 -08 20 48.03 20.1 w F51 – Pan-STARRS 1, Haleakala MPS 460394
2013 03 15.23978 12 38 33.81 -08 10 18.4 20.2 G G45 – Space Surveillance Telescope, Atom Site MPS 1608511
2013 03 15.34408 12 38 29.50 -08 09 39.9 19.0 G G45 – Space Surveillance Telescope, Atom Site MPS 1608511
2013 03 15.35760 12 38 29.00 -08 09 35.0 20.0 G G45 – Space Surveillance Telescope, Atom Site MPS 1608511
2013 03 15.38702 12 38 27.76 -08 09 24.1 20.4 G G45 – Space Surveillance Telescope, Atom Site MPS 1608511
2013 03 31.23984 12 27 17.56 -06 20 56.9 19.6 V G96 – Mt. Lemmon Survey MPS 462549
2013 03 31.24823 12 27 17.20 -06 20 53.4 19.6 V G96 – Mt. Lemmon Survey MPS 462549
2013 03 31.25668 12 27 16.84 -06 20 49.6 19.7 V G96 – Mt. Lemmon Survey MPS 462549
